This is the latest recevied weather packets stored in our database for station/object K4OAM-13. If no packets are shown the sender has not sent any weather packets the latest 10 day(s).
| Time | Temp. | Humidity | Pressure | Rain* | Wind** | Luminosity | Snow |
|---|---|---|---|---|---|---|---|
| 1777933557 | 8.33° C | 84% | 1007.6 hPa | - | - | - | - |
| 1777932957 | 8.33° C | 85% | 1007.5 hPa | - | - | - | - |
| 1777932357 | 8.33° C | 91% | 1007.3 hPa | - | - | - | - |
| 1777931757 | 8.33° C | 95% | 1007.4 hPa | - | - | - | - |
| 1777931157 | 8.33° C | 92% | 1006.9 hPa | - | - | - | - |
| 1777930558 | 8.33° C | 88% | 1007 hPa | - | - | - | - |
| 1777929957 | 8.89° C | 87% | 1006.9 hPa | - | - | - | - |
| 1777929357 | 8.89° C | 87% | 1007.2 hPa | - | - | - | - |
| 1777928758 | 8.89° C | 84% | 1006.9 hPa | - | - | - | - |
| 1777928157 | 8.89° C | 83% | 1006.6 hPa | - | - | - | - |
| 1777927558 | 9.44° C | 82% | 1006.5 hPa | - | - | - | - |
| 1777926957 | 8.89° C | 84% | 1006.5 hPa | - | - | - | - |
| 1777926357 | 8.89° C | 85% | 1006.5 hPa | - | - | - | - |
| 1777925757 | 8.89° C | 85% | 1006.5 hPa | - | - | - | - |
| 1777925157 | 8.89° C | 84% | 1006.4 hPa | - | - | - | - |
| 1777924557 | 8.89° C | 85% | 1006.5 hPa | - | - | - | - |
| 1777923957 | 8.89° C | 85% | 1006.6 hPa | - | - | - | - |
| 1777923357 | 8.89° C | 82% | 1006.3 hPa | - | - | - | - |
| 1777922757 | 8.89° C | 82% | 1006.2 hPa | - | - | - | - |
| 1777922157 | 8.89° C | 84% | 1006.3 hPa | - | - | - | - |
| 1777921558 | 9.44° C | 80% | 1006.1 hPa | - | - | - | - |
| 1777920958 | 9.44° C | 77% | 1006.3 hPa | - | - | - | - |
| 1777920363 | 9.44° C | 76% | 1006.2 hPa | - | - | - | - |
| 1777919757 | 9.44° C | 74% | 1006.2 hPa | - | - | - | - |
| 1777919157 | 8.89° C | 76% | 1006.6 hPa | - | - | - | - |
* Rain since midnight (hover to see other rain measurements)
** Current wind speed in m/s (hover to see current wind gust speed)